SCOUT X-4 R/B, 1815

Orbit data source: Space-Track

SCOUT X-4 R/B, 1815 is space debris in LEO originally from a launch on Mon, 06 Dec 1965 UTC launched from the Air Force Western Test Range (AFWTR). Debris objects in space refer to the collection of defunct objects orbiting the Earth. Examples of debris include non-operational satellites, rocket bodies, and fragments generated from explosions, collisions, or faulty payload assembly.

Loading next visibility...
Identifier
1815, 1965-101B
Orbit
LEO
Country
Flag of USUS
Related business
Manufacturer
ABL
Mission
Spacecraft
Bus & Motor
ALTAIR, Unknown motor
Mass
33 kg wet, 33 kg dry
Launch date (UTC)
1965-12-06 (60 years ago)
Launch vehicle
Unknown
Launch site
Air Force Western Test Range (AFWTR)
Object type
Payload
Rocket body
Debris
Shape & HBR
Unknown
Radar Cross Section
Medium (>0.1 m² and <1 m²)

Expand to show TLE details & history
Last TLE update: 8 hours ago

TLE from 8 hours ago
0 SCOUT X-4 R/B
1  1815U 65101B   26145.11153471  .00001887  00000-0  18899-3 0  9991
2  1815  75.8418  29.8653 0006859 200.5913 159.5004 14.91799359 64787
Epoch: 2026-05-25T02:40Z
TLE epoch observation values (Epoch: 2026-05-25T02:40:36.598Z)
Latitude
-0.00008°
Longitude
107.00877°
Altitude
599.583 km
Speed
7.558 km/s
True Right ascension
01h 59m 27s
True Declination
0° 00' 00"
Sunlit
Object was in daylight at epoch
Visualization orbit readout
Latitude
Unknown
Longitude
Unknown
Altitude
Unknown
Speed
Unknown
Apparent Right ascension
Unknown
Apparent Declination
Unknown
Sunlit
N/A
Visualization observer readout
Local Sidereal Time
20:17:16
Azimuth
Unknown
Elevation
Unknown
Doppler factor
Unknown
Orbital elements
Apogee altitude
594.517 km
Perigee altitude
584.959 km
Semi-major axis
6,967.875 km
Eccentricity
0.00069
Inclination
75.8418°
RAAN
29.8653°
Arg. of periapsis
200.5913°
True anomaly
159.5279°
Mean anomaly
159.5004°
Eccentric anomaly
159.51415°
Mean motion
3.73158 °/min
Orbital period
96.47 mins
BSTAR
0.00018899
Loading maneuver chart data...
Computing Atmospheric mass density...
Loading historical data...
Loading historical data...
Loading historical data...
Loading historical data...
Loading historical data...
Loading historical data...
Loading historical data...

Documentation

Showing up to 5 results
|